TimeCST,TemperatureF,Dew PointF,Humidity,Sea Level PressureIn,VisibilityMPH,Wind Direction,Wind SpeedMPH,Gust SpeedMPH,PrecipitationIn,Events,Conditions,WindDirDegrees,DateUTC
12:15 AM,41.0,29.5,64,30.11,10.0,South,4.6,-,N/A,,Clear,180,2013-11-11 06:15:00
12:55 AM,40.5,30.4,67,30.10,10.0,South,4.6,-,N/A,,Clear,180,2013-11-11 06:55:00
1:15 AM,38.7,30.9,74,30.10,10.0,Calm,Calm,-,N/A,,Clear,0,2013-11-11 07:15:00
1:55 AM,41.5,32.4,70,30.11,10.0,Calm,Calm,-,N/A,,Clear,0,2013-11-11 07:55:00
2:15 AM,41.7,33.1,71,30.11,10.0,Calm,Calm,-,N/A,,Clear,0,2013-11-11 08:15:00
2:35 AM,40.3,32.5,74,30.11,10.0,Calm,Calm,-,N/A,,Clear,0,2013-11-11 08:35:00
2:55 AM,38.3,32.7,80,30.12,10.0,North,5.8,-,N/A,,Clear,10,2013-11-11 08:55:00
3:15 AM,41.2,34.0,76,30.14,10.0,NNE,10.4,-,N/A,,Clear,20,2013-11-11 09:15:00
3:35 AM,41.5,32.0,69,30.14,10.0,NNE,16.1,24.2,N/A,,Clear,30,2013-11-11 09:35:00
3:55 AM,40.1,31.3,71,30.14,10.0,NNE,19.6,24.2,N/A,,Clear,20,2013-11-11 09:55:00
4:15 AM,37.8,31.1,77,30.17,10.0,North,18.4,27.6,N/A,,Scattered Clouds,10,2013-11-11 10:15:00
4:35 AM,36.0,30.7,81,30.18,10.0,NNE,18.4,26.5,N/A,,Overcast,20,2013-11-11 10:35:00
4:55 AM,34.9,30.2,83,30.19,10.0,NNE,15.0,28.8,N/A,,Mostly Cloudy,20,2013-11-11 10:55:00
5:15 AM,34.3,29.7,83,30.20,10.0,NNE,16.1,19.6,N/A,,Scattered Clouds,20,2013-11-11 11:15:00
5:35 AM,33.8,28.4,81,30.22,10.0,North,16.1,26.5,N/A,,Mostly Cloudy,10,2013-11-11 11:35:00
5:55 AM,32.0,25.7,78,30.23,10.0,North,20.7,26.5,N/A,,Overcast,360,2013-11-11 11:55:00
6:15 AM,31.5,23.9,74,30.25,10.0,North,16.1,27.6,N/A,,Mostly Cloudy,10,2013-11-11 12:15:00
6:35 AM,30.7,23.2,74,30.28,10.0,North,17.3,24.2,N/A,,Scattered Clouds,10,2013-11-11 12:35:00
6:55 AM,29.8,21.2,70,30.29,10.0,NNE,21.9,27.6,N/A,,Clear,20,2013-11-11 12:55:00
7:15 AM,29.3,20.3,69,30.31,10.0,North,16.1,31.1,N/A,,Clear,10,2013-11-11 13:15:00
7:35 AM,28.8,19.9,70,30.32,10.0,North,15.0,32.2,N/A,,Clear,10,2013-11-11 13:35:00
7:55 AM,28.2,19.8,71,30.34,10.0,North,13.8,29.9,N/A,,Clear,360,2013-11-11 13:55:00
8:15 AM,28.0,20.1,72,30.35,10.0,North,19.6,24.2,N/A,,Scattered Clouds,10,2013-11-11 14:15:00
8:35 AM,27.5,19.4,72,30.37,10.0,North,16.1,23.0,N/A,,Scattered Clouds,10,2013-11-11 14:35:00
8:55 AM,27.1,18.5,70,30.38,10.0,North,12.7,24.2,N/A,,Mostly Cloudy,10,2013-11-11 14:55:00
9:15 AM,25.9,19.8,78,30.40,1.5,NNE,11.5,20.7,N/A,Snow,Light Snow,20,2013-11-11 15:15:00
9:35 AM,24.6,20.3,84,30.40,0.8,NNE,11.5,23.0,N/A,Snow,Light Snow,20,2013-11-11 15:35:00
9:55 AM,24.8,20.5,84,30.41,1.8,North,11.5,18.4,N/A,Snow,Light Snow,10,2013-11-11 15:55:00
10:15 AM,25.5,18.9,76,30.44,10.0,North,12.7,23.0,N/A,,Overcast,10,2013-11-11 16:15:00
10:35 AM,25.2,17.4,72,30.45,10.0,North,16.1,21.9,N/A,,Overcast,360,2013-11-11 16:35:00
10:55 AM,25.5,16.9,70,30.45,10.0,North,12.7,20.7,N/A,,Overcast,360,2013-11-11 16:55:00
11:15 AM,25.5,18.0,73,30.47,10.0,North,13.8,18.4,N/A,,Mostly Cloudy,360,2013-11-11 17:15:00
11:35 AM,25.5,15.6,66,30.47,10.0,North,12.7,21.9,N/A,,Mostly Cloudy,360,2013-11-11 17:35:00
11:55 AM,25.9,16.2,67,30.46,10.0,NNW,15.0,23.0,N/A,,Mostly Cloudy,340,2013-11-11 17:55:00
12:15 PM,26.6,15.4,63,30.47,10.0,North,16.1,21.9,N/A,,Scattered Clouds,350,2013-11-11 18:15:00
12:35 PM,26.2,12.7,57,30.47,10.0,North,18.4,27.6,N/A,,Mostly Cloudy,10,2013-11-11 18:35:00
12:55 PM,26.6,14.7,61,30.48,10.0,North,16.1,20.7,N/A,,Mostly Cloudy,360,2013-11-11 18:55:00
1:15 PM,26.6,16.2,65,30.49,10.0,North,13.8,23.0,N/A,,Mostly Cloudy,350,2013-11-11 19:15:00
1:35 PM,26.1,13.1,58,30.49,10.0,North,16.1,-,N/A,,Scattered Clouds,360,2013-11-11 19:35:00
1:55 PM,25.2,11.3,56,30.51,10.0,North,13.8,27.6,N/A,,Clear,10,2013-11-11 19:55:00
2:15 PM,25.3,12.9,59,30.51,10.0,North,16.1,23.0,N/A,,Clear,350,2013-11-11 20:15:00
2:35 PM,25.5,12.9,59,30.51,10.0,North,15.0,23.0,N/A,,Clear,350,2013-11-11 20:35:00
2:55 PM,25.2,12.9,60,30.52,10.0,North,20.7,26.5,N/A,,Clear,350,2013-11-11 20:55:00
3:15 PM,25.0,12.4,59,30.53,10.0,North,17.3,23.0,N/A,,Clear,360,2013-11-11 21:15:00
3:55 PM,24.6,12.2,59,30.55,10.0,North,11.5,19.6,N/A,,Clear,350,2013-11-11 21:55:00
4:15 PM,24.8,12.4,59,30.56,10.0,North,17.3,24.2,N/A,,Clear,360,2013-11-11 22:15:00
4:35 PM,24.6,11.8,58,30.57,10.0,North,17.3,21.9,N/A,,Clear,360,2013-11-11 22:35:00
4:55 PM,23.7,11.1,59,30.58,10.0,North,11.5,19.6,N/A,,Clear,360,2013-11-11 22:55:00
5:15 PM,23.0,11.1,60,30.59,10.0,North,12.7,-,N/A,,Clear,360,2013-11-11 23:15:00
5:35 PM,22.1,10.9,62,30.60,10.0,North,13.8,18.4,N/A,,Clear,360,2013-11-11 23:35:00
5:55 PM,21.7,10.8,63,30.61,10.0,North,8.1,17.3,N/A,,Clear,360,2013-11-11 23:55:00
6:15 PM,20.8,10.9,66,30.62,10.0,North,6.9,-,N/A,,Clear,360,2013-11-12 00:15:00
6:35 PM,20.3,11.1,68,30.64,10.0,NNW,9.2,-,N/A,,Clear,340,2013-11-12 00:35:00
6:55 PM,19.9,10.9,68,30.65,10.0,NNW,8.1,-,N/A,,Clear,340,2013-11-12 00:55:00
7:15 PM,19.4,10.9,70,30.66,10.0,NNW,5.8,-,N/A,,Clear,340,2013-11-12 01:15:00
7:35 PM,18.3,10.9,73,30.67,10.0,North,8.1,-,N/A,,Clear,350,2013-11-12 01:35:00
7:55 PM,18.3,10.4,71,30.67,10.0,North,9.2,-,N/A,,Clear,360,2013-11-12 01:55:00
8:15 PM,18.0,9.9,71,30.67,10.0,North,8.1,-,N/A,,Clear,350,2013-11-12 02:15:00
8:35 PM,18.3,9.5,68,30.68,10.0,North,10.4,17.3,N/A,,Clear,350,2013-11-12 02:35:00
8:55 PM,17.6,9.1,69,30.70,10.0,North,11.5,-,N/A,,Clear,350,2013-11-12 02:55:00
9:15 PM,17.6,9.1,69,30.71,10.0,NNW,10.4,-,N/A,,Clear,340,2013-11-12 03:15:00
9:35 PM,17.4,9.0,69,30.72,10.0,North,11.5,-,N/A,,Clear,350,2013-11-12 03:35:00
9:55 PM,17.1,8.6,69,30.72,10.0,North,12.7,17.3,N/A,,Clear,350,2013-11-12 03:55:00
10:15 PM,16.7,8.6,70,30.73,10.0,North,9.2,-,N/A,,Clear,350,2013-11-12 04:15:00
10:35 PM,16.2,8.4,72,30.73,10.0,North,8.1,-,N/A,,Clear,360,2013-11-12 04:35:00
10:55 PM,15.3,8.2,74,30.74,10.0,Calm,Calm,-,N/A,,Clear,0,2013-11-12 04:55:00
11:15 PM,14.9,8.2,75,30.75,10.0,NNW,6.9,-,N/A,,Clear,340,2013-11-12 05:15:00
11:35 PM,14.7,7.7,74,30.76,10.0,NNW,5.8,-,N/A,,Clear,340,2013-11-12 05:35:00
11:55 PM,14.0,7.7,76,30.76,10.0,North,5.8,-,N/A,,Clear,350,2013-11-12 05:55:00